Weather History for Covington, KY

Change the Weather History Date:

Friday, June 21, 2013

  Actual Average Record
Temperature  
Mean Temperature 77 °F 74 °F  
Max Temperature 87 °F 84 °F 98 °F (1933)
Min Temperature 66 °F 64 °F 47 °F (1992)
Degree Days  
Heating Degree Days 0 0  
Month to date heating degree days 1 12  
Since 1 June heating degree days 1 12  
Since 1 July heating degree days 4981 4972  
Cooling Degree Days 12 9  
Month to date cooling degree days 145 140  
Year to date cooling degree days 284 234  
Since 1 June cooling degree days 145 140  
Growing Degree Days 26 (Base 50)    
Moisture  
Dew Point 62 °F    
Average Humidity 62    
Maximum Humidity 81    
Minimum Humidity 42    
Precipitation  
Precipitation 0.00 in 0.13 in 1.26 in (1942)
Month to date precipitation 1.82 2.98  
Year to date precipitation 19.70 21.57  
Snow  
Snow 0.00 in 0.00 in 0.00 in ()
Month to date snowfall 0.0 0.0  
Since 1 June snowfall 0.0 0.0  
Since 1 July snowfall 25.2 22.1  
Snow Depth 0.00 in    
Sea Level Pressure  
Sea Level Pressure 30.17 in    
Wind  
Wind Speed 5 mph (SSE)    
Max Wind Speed 13 mph    
Max Gust Speed 17 mph    
Visibility 10 miles    
Events      
T = Trace of Precipitation, MM = Missing Value Source: NWS Daily Summary

Daily Weather History Graph

Daily Weather History Graph

Search for Another Location

Airport:

Trip Planner

Search our weather history database for the weather conditions in past years. The results will help you decide how hot, cold, wet, or windy it might be!

Date:

Astronomy

Jun. 21, 2013 Rise Set
Actual Time 6:13 AM EDT 9:07 PM EDT
Civil Twilight 5:40 AM EDT 9:40 PM EDT
Nautical Twilight 5:00 AM EDT 10:20 PM EDT
Astronomical Twilight 4:13 AM EDT 11:07 PM EDT
Moon 7:18 PM EDT (6/21) 4:27 AM EDT (6/21)
Length of Visible Light 15h 59m
Length of Day
14h 54m
Waxing Gibbous, 95% of the Moon is Illuminated
Jun 21
Waxing Gibbous
Jun 23
Full
Jun 30
Last Quarter
Jul 8
New
Jul 15
First Quarter

Hourly Weather History & Observations

Time (EDT) Temp. Heat Index Dew Point Humidity Pressure Visibility Wind Dir Wind Speed Gust Speed Precip Events Conditions
12:52 AM 68.0 °F - 57.0 °F 68% 30.18 in 10.0 mi SE 4.6 mph - N/A   Clear
1:52 AM 69.1 °F - 57.9 °F 68% 30.18 in 10.0 mi SSE 3.5 mph - N/A   Clear
2:52 AM 68.0 °F - 59.0 °F 73% 30.17 in 10.0 mi SSE 4.6 mph - N/A   Clear
3:52 AM 68.0 °F - 57.9 °F 70% 30.17 in 10.0 mi SSE 3.5 mph - N/A   Clear
4:52 AM 69.1 °F - 59.0 °F 70% 30.17 in 10.0 mi East 4.6 mph - N/A   Clear
5:52 AM 68.0 °F - 59.0 °F 73% 30.19 in 10.0 mi ESE 4.6 mph - N/A   Scattered Clouds
6:52 AM 66.0 °F - 60.1 °F 81% 30.19 in 10.0 mi ESE 3.5 mph - N/A   Partly Cloudy
7:52 AM 71.1 °F - 61.0 °F 70% 30.20 in 10.0 mi ESE 4.6 mph - N/A   Scattered Clouds
8:52 AM 75.0 °F - 63.0 °F 66% 30.20 in 10.0 mi SE 5.8 mph - N/A   Partly Cloudy
9:52 AM 78.1 °F - 62.1 °F 58% 30.20 in 10.0 mi SE 4.6 mph - N/A   Partly Cloudy
10:52 AM 82.0 °F 83.4 °F 64.0 °F 54% 30.19 in 10.0 mi South 5.8 mph - N/A   Clear
11:52 AM 82.9 °F 84.0 °F 63.0 °F 51% 30.19 in 10.0 mi SSE 8.1 mph - N/A   Partly Cloudy
12:52 PM 82.0 °F 83.0 °F 62.1 °F 51% 30.21 in 10.0 mi South 6.9 mph - N/A   Scattered Clouds
1:52 PM 86.0 °F 86.1 °F 61.0 °F 43% 30.19 in 10.0 mi South 9.2 mph - N/A   Scattered Clouds
2:52 PM 86.0 °F 86.3 °F 62.1 °F 44% 30.17 in 10.0 mi Variable 6.9 mph - N/A   Scattered Clouds
3:52 PM 87.1 °F 88.9 °F 64.9 °F 48% 30.15 in 10.0 mi SSE 11.5 mph - N/A   Scattered Clouds
4:52 PM 84.9 °F 86.6 °F 64.9 °F 51% 30.13 in 10.0 mi SSW 8.1 mph - N/A   Scattered Clouds
5:52 PM 84.9 °F 85.9 °F 63.0 °F 48% 30.13 in 10.0 mi SSW 5.8 mph - N/A   Scattered Clouds
6:52 PM 84.0 °F 85.4 °F 64.0 °F 51% 30.13 in 10.0 mi SW 4.6 mph - N/A   Scattered Clouds
7:52 PM 82.9 °F 84.4 °F 64.0 °F 53% 30.14 in 10.0 mi Calm Calm - N/A   Mostly Cloudy
8:52 PM 78.1 °F - 66.0 °F 66% 30.13 in 10.0 mi Calm Calm - N/A   Overcast
9:52 PM 75.9 °F - 64.0 °F 67% 30.12 in 10.0 mi Calm Calm - N/A   Overcast
10:52 PM 72.0 °F - 64.9 °F 78% 30.13 in 10.0 mi South 5.8 mph - N/A   Overcast
11:52 PM 71.1 °F - 64.9 °F 81% 30.10 in 10.0 mi SSE 8.1 mph - N/A   Partly Cloudy